QPF
0.00 0.00 0.00 0.00 0.00 0.00 0.01 0.02 0.03 0.02 0.02 0.03 0.02 0.02 0.01 0.01 0.01 0.01 0.01 0.01 0.02 0.02 0.03 0.03 0.03 0.01 0.01 0.00 0.00 0.00 0.00 0.00 0.00 0.00 0.00 0.00 0.00 0.01 0.00 0.01 0.02 0.01 0.00
0.00 0.00 0.00 0.00 0.00 0.00 0.01 0.02 0.03 0.03 0.04 0.04 0.04 0.03 0.03 0.02 0.03 0.02 0.02 0.02 0.03 0.04 0.04 0.04 0.02 0.01 0.00 0.00 0.00 0.00 0.00 0.00 0.00 0.00 0.01 0.01 0.00 0.01 0.01 0.03 0.04 0.01 0.00
0.00 0.00 0.00 0.00 0.00 0.00 0.00 0.01 0.02 0.03 0.05 0.05 0.05 0.04 0.04 0.03 0.03 0.02 0.02 0.02 0.03 0.03 0.03 0.02 0.01 0.00 0.00 0.00 0.00 0.00 0.00 0.00 0.00 0.01 0.08 0.07 0.00 0.00 0.00 0.01 0.01 0.00 0.00
0.00 0.00 0.00 0.00 0.00 0.00 0.00 0.01 0.02 0.04 0.05 0.05 0.04 0.04 0.03 0.03 0.02 0.02 0.02 0.02 0.03 0.02 0.02 0.01 0.00 0.00 0.00 0.00 0.00 0.00 0.00 0.00 0.01 0.03 0.08 0.09 0.01 0.00 0.00 0.00 0.00 0.00 0.00
0.00 0.00 0.00 0.00 0.00 0.00 0.00 0.00 0.02 0.04 0.05 0.04 0.04 0.04 0.03 0.03 0.02 0.02 0.02 0.02 0.02 0.01 0.01 0.00 0.00 0.00 0.00 0.00 0.00 0.00 0.00 0.00 0.01 0.06 0.17 0.16 0.03 0.00 0.00 0.00 0.00 0.00 0.00
0.00 0.00 0.00 0.00 0.00 0.00 0.00 0.00 0.01 0.02 0.04 0.05 0.05 0.04 0.03 0.02 0.02 0.01 0.01 0.01 0.01 0.01 0.00 0.00 0.00 0.00 0.00 0.00 0.00 0.00 0.00 0.00 0.03 0.10 0.18 0.13 0.04 0.01 0.00 0.00 0.00 0.01 0.01
0.00 0.00 0.00 0.00 0.00 0.00 0.00 0.00 0.01 0.02 0.03 0.05 0.04 0.03 0.02 0.01 0.01 0.01 0.01 0.01 0.01 0.01 0.00 0.00 0.00 0.00 0.00 0.00 0.00 0.00 0.00 0.01 0.06 0.28 0.34 0.11 0.02 0.01 0.00 0.01 0.02 0.02 0.02
0.00 0.00 0.00 0.00 0.00 0.00 0.00 0.01 0.02 0.03 0.03 0.04 0.03 0.02 0.01 0.01 0.00 0.00 0.00 0.01 0.01 0.01 0.00 0.00 0.00 0.00 0.00 0.00 0.00 0.00 0.00 0.01 0.05 0.25 0.35 0.13 0.04 0.01 0.00 0.01 0.02 0.03 0.03
0.00 0.00 0.00 0.00 0.00 0.00 0.00 0.01 0.02 0.02 0.03 0.03 0.02 0.02 0.01 0.00 0.00 0.00 0.00 0.00 0.00 0.01 0.00 0.00 0.00 0.00 0.00 0.00 0.00 0.00 0.00 0.01 0.05 0.06 0.08 0.04 0.02 0.00 0.00 0.01 0.01 0.01 0.01
0.00 0.00 0.00 0.00 0.00 0.00 0.00 0.00 0.01 0.01 0.01 0.01 0.01 0.01 0.00 0.00 0.00 0.00 0.00 0.01 0.00 0.00 0.00 0.00 0.00 0.00 0.00 0.00 0.00 0.00 0.00 0.01 0.03 0.04 0.06 0.02 0.01 0.00 0.00 0.00 0.00 0.00 0.00
0.00 0.00 0.00 0.00 0.00 0.00 0.00 0.00 0.00 0.00 0.00 0.00 0.00 0.00 0.00 0.00 0.01 0.01 0.01 0.01 0.00 0.00 0.00 0.00 0.00 0.00 0.00 0.00 0.00 0.00 0.00 0.01 0.03 0.05 0.12 0.08 0.01 0.00 0.00 0.00 0.00 0.00 0.00
0.00 0.00 0.00 0.00 0.00 0.00 0.00 0.00 0.00 0.00 0.00 0.00 0.01 0.01 0.00 0.05 0.10 0.09 0.10 0.03 0.01 0.00 0.00 0.00 0.00 0.00 0.00 0.00 0.00 0.00 0.00 0.00 0.02 0.03 0.03 0.02 0.01 0.00 0.00 0.00 0.00 0.00 0.00
0.00 0.00 0.00 0.00 0.00 0.00 0.00 0.00 0.00 0.00 0.02 0.01 0.03 0.05 0.05 0.11 0.11 0.16 0.19 0.08 0.03 0.02 0.03 0.03 0.01 0.00 0.00 0.00 0.00 0.00 0.00 0.00 0.00 0.01 0.01 0.00 0.00 0.00 0.00 0.00 0.00 0.00 0.00
0.00 0.00 0.00 0.00 0.00 0.00 0.00 0.00 0.00 0.00 0.02 0.01 0.05 0.06 0.11 0.14 0.16 0.19 0.19 0.14 0.11 0.09 0.08 0.05 0.02 0.01 0.00 0.00 0.00 0.00 0.00 0.00 0.00 0.00 0.00 0.00 0.00 0.00 0.00 0.00 0.00 0.00 0.00
0.00 0.00 0.00 0.00 0.00 0.00 0.00 0.00 0.00 0.00 0.02 0.03 0.06 0.07 0.09 0.11 0.14 0.18 0.17 0.16 0.11 0.09 0.07 0.03 0.02 0.01 0.00 0.01 0.00 0.00 0.00 0.00 0.00 0.00 0.00 0.00 0.00 0.00 0.00 0.00 0.00 0.00 0.00
0.00 0.00 0.00 0.00 0.00 0.00 0.00 0.00 0.00 0.01 0.02 0.03 0.04 0.05 0.06 0.10 0.16 0.19 0.17 0.15 0.12 0.10 0.13 0.06 0.04 0.03 0.01 0.01 0.00 0.00 0.00 0.00 0.00 0.00 0.00 0.00 0.00 0.00 0.00 0.00 0.00 0.00 0.00
0.00 0.00 0.00 0.00 0.00 0.00 0.00 0.00 0.01 0.01 0.02 0.03 0.05 0.05 0.05 0.08 0.15 0.17 0.16 0.15 0.13 0.11 0.09 0.05 0.03 0.04 0.04 0.01 0.00 0.00 0.00 0.00 0.00 0.00 0.00 0.00 0.00 0.00 0.00 0.00 0.00 0.00 0.00
0.00 0.00 0.00 0.00 0.00 0.00 0.00 0.00 0.01 0.02 0.02 0.03 0.05 0.06 0.08 0.09 0.12 0.15 0.15 0.14 0.13 0.12 0.09 0.05 0.03 0.02 0.03 0.01 0.01 0.01 0.00 0.00 0.00 0.01 0.01 0.01 0.00 0.00 0.00 0.00 0.00 0.00 0.00
0.00 0.00 0.00 0.00 0.00 0.00 0.01 0.01 0.01 0.02 0.03 0.05 0.07 0.09 0.13 0.14 0.14 0.16 0.15 0.16 0.15 0.14 0.11 0.06 0.03 0.03 0.03 0.02 0.01 0.01 0.01 0.01 0.01 0.01 0.01 0.01 0.01 0.01 0.00 0.00 0.00 0.00 0.00
0.00 0.00 0.00 0.01 0.01 0.01 0.01 0.01 0.02 0.02 0.04 0.07 0.10 0.10 0.12 0.14 0.16 0.19 0.20 0.19 0.17 0.16 0.13 0.08 0.05 0.04 0.03 0.02 0.01 0.01 0.01 0.01 0.01 0.00 0.01 0.00 0.00 0.00 0.00 0.00 0.00 0.00 0.00
0.00 0.01 0.02 0.02 0.02 0.02 0.01 0.02 0.03 0.05 0.06 0.07 0.08 0.09 0.13 0.15 0.16 0.19 0.21 0.21 0.19 0.17 0.15 0.12 0.09 0.06 0.04 0.03 0.02 0.01 0.01 0.01 0.01 0.00 0.00 0.00 0.00 0.00 0.00 0.00 0.00 0.00 0.00
0.00 0.01 0.02 0.04 0.04 0.05 0.06 0.07 0.10 0.11 0.13 0.12 0.14 0.18 0.18 0.16 0.18 0.22 0.26 0.26 0.25 0.24 0.21 0.16 0.11 0.08 0.05 0.04 0.03 0.03 0.02 0.01 0.00 0.00 0.00 0.00 0.00 0.00 0.00 0.00 0.00 0.00 0.00
0.01 0.02 0.03 0.06 0.08 0.09 0.10 0.10 0.13 0.16 0.19 0.21 0.21 0.20 0.19 0.18 0.17 0.19 0.25 0.29 0.28 0.26 0.20 0.13 0.10 0.07 0.05 0.04 0.02 0.01 0.01 0.00 0.00 0.00 0.00 0.00 0.00 0.00 0.00 0.00 0.00 0.00 0.00
0.01 0.02 0.05 0.08 0.11 0.11 0.11 0.10 0.12 0.17 0.19 0.20 0.19 0.16 0.14 0.13 0.12 0.14 0.22 0.27 0.26 0.21 0.14 0.10 0.08 0.06 0.04 0.03 0.01 0.00 0.00 0.00 0.00 0.00 0.00 0.00 0.00 0.00 0.00 0.00 0.00 0.00 0.00
0.01 0.01 0.05 0.09 0.10 0.13 0.13 0.12 0.15 0.19 0.19 0.16 0.14 0.13 0.12 0.12 0.12 0.13 0.17 0.16 0.14 0.10 0.07 0.05 0.03 0.02 0.01 0.01 0.00 0.00 0.00 0.00 0.00 0.00 0.00 0.00 0.00 0.00 0.00 0.00 0.00 0.00 0.00
0.01 0.03 0.06 0.08 0.11 0.16 0.17 0.19 0.21 0.19 0.17 0.14 0.12 0.13 0.14 0.11 0.09 0.08 0.09 0.07 0.05 0.03 0.02 0.01 0.01 0.00 0.00 0.00 0.00 0.00 0.00 0.00 0.00 0.00 0.00 0.00 0.00 0.00 0.00 0.00 0.00 0.00 0.00
MSLP
1009.52 1009.82 1010.27 1010.84 1011.46 1012.08 1012.62 1013.07 1013.42 1013.70 1013.96 1014.23 1014.54 1014.89 1015.28 1015.66 1016.01 1016.30 1016.51 1016.66 1016.76 1016.83 1016.91 1017.01 1017.12 1017.23 1017.33 1017.40 1017.43 1017.42 1017.40 1017.37 1017.38 1017.42 1017.52 1017.65 1017.81 1017.98 1018.13 1018.25 1018.35 1018.44 1018.54
1009.41 1009.80 1010.34 1010.97 1011.64 1012.25 1012.78 1013.19 1013.50 1013.76 1014.01 1014.32 1014.69 1015.13 1015.60 1016.06 1016.46 1016.77 1016.97 1017.08 1017.14 1017.17 1017.21 1017.29 1017.39 1017.50 1017.59 1017.65 1017.65 1017.62 1017.56 1017.51 1017.49 1017.53 1017.64 1017.80 1017.99 1018.18 1018.35 1018.49 1018.60 1018.70 1018.79
1009.15 1009.64 1010.28 1011.00 1011.72 1012.38 1012.91 1013.31 1013.61 1013.85 1014.11 1014.43 1014.83 1015.31 1015.82 1016.32 1016.73 1017.04 1017.23 1017.32 1017.36 1017.38 1017.42 1017.51 1017.62 1017.74 1017.83 1017.87 1017.84 1017.76 1017.64 1017.55 1017.50 1017.53 1017.64 1017.82 1018.05 1018.28 1018.50 1018.67 1018.81 1018.93 1019.04
1008.84 1009.42 1010.16 1010.98 1011.79 1012.50 1013.07 1013.49 1013.79 1014.03 1014.28 1014.59 1014.99 1015.47 1015.97 1016.46 1016.86 1017.16 1017.33 1017.42 1017.46 1017.51 1017.59 1017.71 1017.85 1017.99 1018.08 1018.09 1018.02 1017.88 1017.70 1017.54 1017.45 1017.47 1017.58 1017.79 1018.06 1018.34 1018.61 1018.83 1019.01 1019.16 1019.31
1008.57 1009.23 1010.06 1010.98 1011.88 1012.67 1013.30 1013.76 1014.07 1014.31 1014.54 1014.82 1015.19 1015.63 1016.09 1016.54 1016.91 1017.18 1017.35 1017.45 1017.52 1017.62 1017.75 1017.93 1018.12 1018.28 1018.37 1018.35 1018.23 1018.02 1017.78 1017.56 1017.43 1017.43 1017.55 1017.78 1018.09 1018.42 1018.74 1019.01 1019.24 1019.42 1019.59
1008.42 1009.15 1010.06 1011.06 1012.04 1012.90 1013.59 1014.08 1014.42 1014.65 1014.87 1015.12 1015.44 1015.81 1016.22 1016.61 1016.94 1017.19 1017.36 1017.48 1017.60 1017.75 1017.95 1018.18 1018.42 1018.60 1018.68 1018.63 1018.46 1018.20 1017.90 1017.64 1017.48 1017.46 1017.59 1017.85 1018.19 1018.56 1018.92 1019.23 1019.49 1019.71 1019.89
1008.42 1009.19 1010.15 1011.21 1012.25 1013.16 1013.90 1014.42 1014.78 1015.02 1015.22 1015.44 1015.71 1016.04 1016.39 1016.73 1017.02 1017.25 1017.42 1017.57 1017.73 1017.94 1018.18 1018.46 1018.72 1018.90 1018.97 1018.89 1018.68 1018.38 1018.05 1017.76 1017.59 1017.58 1017.73 1018.01 1018.38 1018.78 1019.16 1019.50 1019.77 1019.99 1020.18
1008.55 1009.34 1010.31 1011.39 1012.44 1013.38 1014.14 1014.68 1015.06 1015.31 1015.51 1015.72 1015.97 1016.27 1016.59 1016.89 1017.16 1017.38 1017.56 1017.73 1017.91 1018.14 1018.40 1018.69 1018.94 1019.12 1019.16 1019.06 1018.82 1018.51 1018.18 1017.91 1017.76 1017.78 1017.96 1018.27 1018.65 1019.07 1019.45 1019.78 1020.04 1020.25 1020.42
1008.73 1009.51 1010.47 1011.52 1012.55 1013.47 1014.22 1014.77 1015.16 1015.43 1015.65 1015.88 1016.15 1016.45 1016.77 1017.08 1017.34 1017.56 1017.74 1017.91 1018.09 1018.31 1018.56 1018.81 1019.03 1019.16 1019.18 1019.05 1018.82 1018.52 1018.23 1018.01 1017.92 1017.99 1018.22 1018.56 1018.96 1019.37 1019.74 1020.04 1020.27 1020.44 1020.58
1008.88 1009.64 1010.55 1011.54 1012.51 1013.37 1014.08 1014.62 1015.02 1015.32 1015.60 1015.88 1016.20 1016.54 1016.90 1017.23 1017.51 1017.74 1017.91 1018.07 1018.22 1018.39 1018.59 1018.78 1018.93 1019.01 1018.99 1018.86 1018.65 1018.40 1018.18 1018.04 1018.03 1018.18 1018.47 1018.84 1019.26 1019.66 1020.00 1020.26 1020.44 1020.57 1020.67
1008.95 1009.66 1010.51 1011.40 1012.28 1013.05 1013.70 1014.22 1014.63 1014.98 1015.32 1015.68 1016.07 1016.49 1016.91 1017.29 1017.61 1017.85 1018.02 1018.15 1018.26 1018.37 1018.48 1018.59 1018.67 1018.69 1018.63 1018.51 1018.33 1018.16 1018.03 1018.00 1018.09 1018.33 1018.68 1019.09 1019.51 1019.90 1020.20 1020.42 1020.56 1020.64 1020.69
1008.88 1009.57 1010.33 1011.12 1011.89 1012.57 1013.15 1013.64 1014.06 1014.45 1014.86 1015.31 1015.79 1016.30 1016.79 1017.23 1017.59 1017.86 1018.03 1018.14 1018.20 1018.25 1018.28 1018.30 1018.31 1018.27 1018.19 1018.08 1017.96 1017.86 1017.84 1017.92 1018.12 1018.44 1018.85 1019.29 1019.72 1020.09 1020.37 1020.55 1020.65 1020.69 1020.71
1008.71 1009.36 1010.05 1010.75 1011.40 1012.00 1012.52 1012.98 1013.41 1013.84 1014.32 1014.84 1015.41 1016.00 1016.56 1017.05 1017.46 1017.75 1017.94 1018.04 1018.07 1018.07 1018.04 1018.00 1017.95 1017.88 1017.80 1017.71 1017.64 1017.63 1017.70 1017.88 1018.16 1018.55 1019.00 1019.47 1019.90 1020.26 1020.52 1020.67 1020.74 1020.76 1020.77
1008.43 1009.06 1009.70 1010.33 1010.91 1011.44 1011.91 1012.36 1012.81 1013.28 1013.81 1014.39 1015.01 1015.64 1016.25 1016.79 1017.23 1017.55 1017.76 1017.87 1017.91 1017.90 1017.85 1017.79 1017.72 1017.64 1017.57 1017.52 1017.50 1017.56 1017.69 1017.94 1018.28 1018.71 1019.18 1019.65 1020.07 1020.42 1020.66 1020.81 1020.88 1020.90 1020.90
1008.07 1008.70 1009.32 1009.91 1010.46 1010.96 1011.44 1011.90 1012.37 1012.87 1013.43 1014.03 1014.67 1015.31 1015.93 1016.48 1016.93 1017.29 1017.54 1017.69 1017.77 1017.79 1017.77 1017.74 1017.69 1017.64 1017.60 1017.58 1017.61 1017.70 1017.88 1018.15 1018.51 1018.93 1019.39 1019.84 1020.25 1020.58 1020.82 1020.97 1021.05 1021.08 1021.10
1007.63 1008.29 1008.92 1009.53 1010.10 1010.63 1011.14 1011.65 1012.16 1012.69 1013.26 1013.85 1014.46 1015.06 1015.64 1016.17 1016.63 1017.01 1017.30 1017.52 1017.68 1017.78 1017.84 1017.88 1017.89 1017.89 1017.90 1017.92 1017.98 1018.09 1018.27 1018.53 1018.86 1019.24 1019.65 1020.05 1020.42 1020.73 1020.97 1021.14 1021.24 1021.30 1021.34
1007.12 1007.82 1008.50 1009.16 1009.80 1010.41 1011.01 1011.60 1012.17 1012.73 1013.29 1013.84 1014.39 1014.92 1015.43 1015.91 1016.34 1016.74 1017.08 1017.38 1017.64 1017.85 1018.03 1018.16 1018.27 1018.34 1018.40 1018.47 1018.55 1018.66 1018.81 1019.02 1019.28 1019.59 1019.92 1020.26 1020.57 1020.85 1021.08 1021.26 1021.39 1021.48 1021.55
1006.56 1007.29 1008.03 1008.78 1009.52 1010.26 1010.99 1011.68 1012.33 1012.93 1013.48 1013.99 1014.45 1014.88 1015.30 1015.71 1016.11 1016.51 1016.90 1017.29 1017.65 1017.98 1018.28 1018.53 1018.73 1018.89 1019.02 1019.11 1019.20 1019.30 1019.41 1019.56 1019.73 1019.94 1020.18 1020.42 1020.67 1020.90 1021.12 1021.30 1021.45 1021.58 1021.68
1005.99 1006.74 1007.53 1008.37 1009.24 1010.12 1010.98 1011.80 1012.55 1013.21 1013.76 1014.21 1014.60 1014.93 1015.25 1015.58 1015.94 1016.33 1016.77 1017.23 1017.69 1018.13 1018.54 1018.90 1019.20 1019.43 1019.61 1019.74 1019.84 1019.91 1019.98 1020.06 1020.15 1020.25 1020.38 1020.53 1020.69 1020.87 1021.04 1021.22 1021.38 1021.53 1021.65
1005.48 1006.22 1007.04 1007.95 1008.92 1009.93 1010.94 1011.89 1012.74 1013.46 1014.03 1014.45 1014.77 1015.03 1015.27 1015.53 1015.85 1016.24 1016.70 1017.21 1017.74 1018.27 1018.76 1019.20 1019.57 1019.86 1020.09 1020.25 1020.36 1020.42 1020.46 1020.48 1020.48 1020.49 1020.52 1020.56 1020.63 1020.73 1020.86 1021.01 1021.17 1021.32 1021.47
1005.14 1005.83 1006.63 1007.56 1008.60 1009.71 1010.83 1011.90 1012.85 1013.63 1014.23 1014.65 1014.95 1015.16 1015.34 1015.56 1015.86 1016.24 1016.71 1017.25 1017.82 1018.39 1018.93 1019.41 1019.82 1020.16 1020.41 1020.60 1020.73 1020.80 1020.81 1020.79 1020.74 1020.67 1020.60 1020.55 1020.52 1020.54 1020.60 1020.70 1020.84 1020.99 1021.14
1005.09 1005.68 1006.40 1007.30 1008.34 1009.49 1010.68 1011.82 1012.85 1013.70 1014.35 1014.80 1015.10 1015.30 1015.48 1015.69 1015.98 1016.36 1016.84 1017.38 1017.95 1018.53 1019.07 1019.56 1019.97 1020.32 1020.60 1020.81 1020.95 1021.04 1021.06 1021.03 1020.94 1020.82 1020.67 1020.53 1020.41 1020.34 1020.32 1020.36 1020.45 1020.58 1020.73
1005.42 1005.86 1006.45 1007.25 1008.23 1009.35 1010.54 1011.71 1012.78 1013.69 1014.39 1014.89 1015.24 1015.48 1015.69 1015.92 1016.23 1016.61 1017.08 1017.61 1018.16 1018.70 1019.21 1019.66 1020.06 1020.40 1020.68 1020.91 1021.08 1021.20 1021.25 1021.23 1021.13 1020.97 1020.77 1020.56 1020.35 1020.19 1020.08 1020.05 1020.08 1020.18 1020.31
1006.15 1006.41 1006.84 1007.48 1008.33 1009.36 1010.50 1011.65 1012.72 1013.66 1014.41 1014.97 1015.38 1015.69 1015.96 1016.25 1016.58 1016.99 1017.45 1017.95 1018.46 1018.95 1019.40 1019.79 1020.14 1020.45 1020.73 1020.97 1021.18 1021.33 1021.42 1021.42 1021.34 1021.17 1020.93 1020.66 1020.38 1020.14 1019.95 1019.84 1019.81 1019.86 1019.96
1007.24 1007.31 1007.55 1008.00 1008.69 1009.58 1010.61 1011.70 1012.74 1013.68 1014.46 1015.08 1015.56 1015.95 1016.29 1016.64 1017.02 1017.44 1017.90 1018.37 1018.83 1019.26 1019.64 1019.97 1020.27 1020.54 1020.80 1021.05 1021.29 1021.48 1021.60 1021.65 1021.58 1021.42 1021.16 1020.85 1020.52 1020.21 1019.95 1019.77 1019.67 1019.66 1019.72
1008.55 1008.46 1008.52 1008.79 1009.30 1010.04 1010.93 1011.92 1012.90 1013.81 1014.60 1015.25 1015.79 1016.24 1016.65 1017.06 1017.49 1017.93 1018.39 1018.84 1019.25 1019.61 1019.93 1020.20 1020.44 1020.68 1020.92 1021.17 1021.42 1021.65 1021.81 1021.88 1021.85 1021.70 1021.45 1021.12 1020.75 1020.40 1020.08 1019.84 1019.68 1019.62 1019.63
Thickness
5816 5808 5801 5796 5793 5790 5786 5783 5780 5777 5774 5772 5770 5768 5766 5764 5762 5761 5759 5757 5755 5754 5753 5752 5751 5750 5751 5751 5751 5751 5752 5752 5752 5751 5751 5750 5750 5749 5748 5748 5748 5747 5745
5817 5806 5799 5794 5790 5787 5783 5780 5777 5774 5771 5768 5766 5764 5762 5760 5758 5756 5754 5753 5751 5750 5749 5748 5747 5747 5747 5747 5747 5748 5748 5749 5748 5748 5748 5748 5747 5746 5745 5745 5745 5742 5741
5814 5804 5797 5792 5788 5784 5781 5777 5774 5771 5768 5765 5763 5760 5759 5757 5755 5753 5751 5749 5748 5746 5745 5744 5744 5743 5743 5744 5744 5745 5745 5746 5745 5745 5745 5745 5744 5742 5741 5740 5739 5737 5736
5812 5803 5796 5789 5786 5782 5778 5775 5772 5769 5765 5763 5760 5758 5756 5754 5752 5750 5748 5746 5744 5743 5742 5741 5740 5740 5740 5741 5741 5742 5742 5743 5742 5742 5742 5741 5741 5738 5737 5735 5734 5732 5731
5811 5802 5793 5788 5784 5780 5776 5773 5770 5767 5764 5761 5758 5756 5754 5752 5749 5747 5745 5743 5741 5740 5738 5737 5737 5737 5737 5738 5738 5739 5739 5740 5740 5739 5738 5736 5737 5735 5733 5731 5729 5727 5726
5811 5801 5791 5786 5782 5778 5774 5771 5768 5765 5762 5759 5756 5754 5751 5749 5747 5744 5742 5740 5738 5737 5735 5734 5734 5734 5734 5735 5735 5736 5737 5737 5737 5737 5736 5734 5732 5731 5729 5727 5725 5723 5721
5811 5801 5790 5785 5781 5777 5773 5769 5766 5763 5760 5758 5755 5752 5749 5746 5744 5742 5740 5738 5735 5734 5732 5731 5731 5730 5731 5731 5733 5733 5734 5734 5734 5733 5728 5730 5728 5726 5724 5722 5720 5719 5717
5812 5801 5790 5784 5779 5775 5772 5768 5765 5762 5759 5756 5753 5750 5746 5744 5742 5740 5738 5736 5733 5731 5730 5728 5728 5727 5728 5729 5730 5731 5732 5731 5732 5729 5724 5725 5723 5721 5719 5717 5715 5714 5712
5815 5802 5791 5784 5779 5775 5771 5767 5764 5760 5757 5753 5751 5748 5745 5742 5740 5738 5736 5734 5732 5730 5727 5726 5725 5725 5725 5726 5728 5729 5730 5729 5728 5726 5724 5721 5719 5717 5714 5712 5711 5709 5708
5815 5803 5795 5787 5781 5776 5771 5767 5762 5759 5755 5752 5749 5746 5743 5741 5738 5736 5734 5732 5730 5727 5725 5723 5722 5723 5723 5725 5726 5727 5728 5727 5725 5724 5719 5715 5714 5712 5709 5708 5706 5705 5704
5813 5805 5798 5792 5785 5780 5774 5768 5763 5758 5754 5751 5747 5744 5742 5740 5738 5735 5734 5730 5728 5725 5723 5721 5721 5721 5722 5723 5724 5725 5725 5724 5722 5720 5715 5710 5710 5709 5706 5705 5703 5702 5701
5810 5807 5802 5797 5790 5785 5780 5771 5765 5760 5755 5752 5749 5745 5742 5742 5740 5737 5733 5729 5726 5723 5721 5720 5719 5719 5720 5721 5723 5723 5723 5723 5720 5717 5711 5709 5708 5706 5703 5702 5700 5699 5698
5814 5811 5808 5802 5795 5791 5785 5774 5770 5765 5759 5754 5752 5747 5745 5743 5740 5736 5731 5727 5724 5721 5719 5718 5717 5718 5720 5722 5723 5722 5721 5719 5718 5713 5706 5705 5704 5702 5700 5698 5696 5695 5694
5816 5812 5812 5806 5799 5795 5789 5781 5776 5771 5764 5759 5754 5749 5746 5742 5738 5734 5729 5726 5723 5721 5720 5718 5718 5719 5720 5721 5722 5722 5719 5715 5713 5708 5702 5701 5700 5698 5695 5693 5691 5690 5689
5818 5814 5814 5809 5801 5795 5791 5785 5779 5774 5768 5763 5757 5749 5745 5741 5736 5732 5727 5723 5722 5720 5718 5717 5717 5718 5717 5715 5716 5716 5713 5709 5705 5702 5698 5696 5694 5692 5690 5688 5686 5685 5684
5821 5816 5815 5809 5802 5796 5790 5784 5779 5774 5768 5763 5756 5749 5744 5740 5735 5730 5724 5721 5718 5716 5713 5712 5713 5712 5710 5709 5708 5707 5704 5701 5697 5695 5692 5689 5687 5686 5684 5682 5680 5678 5677
5823 5818 5814 5808 5802 5795 5789 5783 5778 5773 5767 5761 5755 5750 5743 5738 5732 5726 5721 5716 5712 5709 5707 5706 5706 5705 5703 5702 5700 5698 5695 5693 5690 5686 5683 5682 5680 5679 5676 5674 5672 5670 5669
5827 5819 5813 5809 5801 5793 5788 5781 5776 5771 5766 5760 5755 5750 5744 5737 5731 5724 5718 5711 5706 5703 5700 5697 5697 5695 5693 5691 5689 5687 5685 5683 5681 5679 5676 5674 5673 5672 5670 5667 5665 5662 5660
5828 5820 5812 5807 5800 5792 5785 5778 5773 5768 5763 5757 5752 5747 5741 5734 5728 5722 5714 5706 5699 5695 5691 5689 5686 5685 5681 5679 5678 5677 5676 5674 5673 5672 5670 5668 5665 5665 5663 5662 5659 5655 5653
5827 5820 5812 5804 5798 5790 5782 5774 5768 5763 5757 5751 5746 5741 5736 5729 5724 5718 5709 5702 5695 5688 5681 5678 5674 5673 5670 5668 5669 5668 5667 5667 5666 5666 5664 5663 5660 5658 5656 5654 5652 5649 5646
5824 5816 5809 5800 5793 5786 5777 5769 5762 5756 5751 5745 5740 5735 5731 5726 5721 5714 5705 5697 5690 5683 5676 5671 5666 5663 5660 5660 5658 5658 5660 5661 5660 5660 5658 5656 5654 5653 5650 5647 5644 5642 5638
5819 5813 5805 5797 5789 5782 5774 5768 5760 5752 5746 5741 5734 5728 5723 5719 5713 5707 5700 5692 5685 5678 5672 5667 5662 5658 5654 5652 5650 5649 5648 5651 5652 5654 5651 5648 5647 5645 5642 5639 5636 5633 5629
5814 5809 5804 5795 5786 5778 5769 5760 5751 5743 5737 5731 5724 5719 5715 5710 5705 5700 5694 5687 5680 5674 5668 5663 5659 5654 5649 5646 5645 5642 5638 5638 5641 5644 5643 5641 5639 5636 5632 5628 5625 5622 5619
5810 5808 5801 5792 5782 5772 5763 5754 5745 5737 5730 5725 5718 5712 5707 5702 5697 5692 5687 5680 5674 5669 5663 5658 5652 5647 5644 5639 5636 5634 5632 5629 5625 5627 5630 5631 5629 5625 5622 5619 5615 5610 5605
5801 5801 5794 5785 5773 5764 5756 5748 5740 5732 5725 5717 5710 5703 5696 5691 5687 5682 5677 5672 5666 5660 5655 5650 5644 5640 5637 5633 5630 5627 5624 5621 5618 5613 5613 5615 5614 5613 5611 5607 5603 5598 5593
5782 5782 5778 5769 5760 5753 5745 5738 5731 5722 5715 5707 5700 5692 5686 5680 5675 5671 5667 5662 5657 5651 5646 5641 5636 5632 5628 5624 5621 5619 5615 5611 5608 5605 5601 5599 5598 5597 5595 5591 5586 5582 5578